Location: Watson Lake
(60.1170°N, 128.8000°W)
Time: 08:14:33
(UTC-08:00)

Daily predictions for brighter satellites

Satellite Brightness Start Highest point End
(mag) Time Altitude Azimuth Time Altitude Azimuth Time Altitude Azimuth
Cosmos 1697 Rocket 3.5 17:01:44 10° WSW 17:07:09 44° NNW 17:12:36 10° NE
Cosmos 2208 Rocket 4.1 17:02:06 10° SSW 17:07:22 83° ESE 17:12:45 10° NNE
IDEFIX/ARIANE 42P 2.6 17:02:36 10° SSE 17:07:47 66° ENE 17:13:02 10° NNW
Cosmos 1607 4.1 17:02:11 10° WSW 17:08:21 71° NNW 17:14:36 10° ENE
COSMO-SKYMED 1 4.5 17:08:44 10° ENE 17:10:06 11° E 17:11:29 10° E
PAYLOAD A 4.2 17:05:54 10° SSE 17:11:19 87° ENE 17:16:37 10° NNW
Cosmos 1763 Rocket 4.4 17:07:32 10° SSE 17:12:01 31° ESE 17:16:29 10° NE
Timation 1 Rocket 4.4 17:06:27 10° NW 17:12:31 76° NE 17:18:34 10° SE
Cosmos 1943 Rocket 3.2 17:10:45 10° NW 17:15:31 28° N 17:20:19 10° ENE
AQUARIUS 4.2 17:11:08 10° SSE 17:15:35 62° ENE 17:20:04 10° NNW
SJ-7 4.5 17:11:55 10° SE 17:15:50 54° ENE 17:19:46 10° N
CZ-2C R/B 4.3 17:11:53 10° NNE 17:16:27 42° E 17:20:59 10° S
Geosat 4.2 17:12:11 10° NE 17:17:15 76° NW 17:22:17 10° SW
Cosmos 2034 Rocket 4.4 17:11:26 10° NNW 17:17:48 76° W 17:24:10 10° S
Cosmos 1726 2.5 17:14:27 10° N 17:18:04 41° ENE 17:21:40 10° SE
MSX 3.9 17:13:27 10° SE 17:19:06 62° ENE 17:24:47 10° NNW
YAOGAN 1 2.6 17:15:32 10° SE 17:19:48 59° ENE 17:24:05 10° NNW
Cosmos 1455 3.6 17:17:20 10° NNE 17:19:58 18° NE 17:22:36 10° E
MTI 4.2 17:17:13 10° NNE 17:20:23 45° E 17:23:32 10° S
Cosmos 2219 Rocket 3.3 17:15:57 10° SSE 17:20:25 25° ESE 17:24:53 10° NE
USA 238 DEB 3.9 17:15:05 10° WSW 17:22:08 84° NNW 17:29:15 10° ENE
USA 238 3.9 17:15:10 10° WSW 17:22:14 85° NNW 17:29:21 10° ENE
Cosmos 389 Rocket 3.4 17:18:51 10° NNW 17:22:25 54° WSW 17:25:53 10° S
Cosmos 2084 Rocket 3.2 17:19:30 10° WNW 17:23:18 63° NNE 17:27:05 10° E
Cosmos 2278 Rocket 2.5 17:17:37 10° NW 17:23:20 75° SW 17:29:00 10° SSE
Cosmos 1408 Rocket 3.8 17:19:04 10° S 17:23:23 53° E 17:27:41 10° NNE
Cosmos 2333 Rocket 3.5 17:19:25 10° SSE 17:23:37 22° ESE 17:27:49 10° NE
MOS 1 4.3 17:18:18 10° SSE 17:23:57 76° ENE 17:29:41 10° NNW
ATLAS 3B R/B 2.9 17:16:53 10° WSW 17:24:18 73° NNW 17:31:19 10° ENE
Cosmos 1570 Rocket 4.3 17:20:03 10° SW 17:25:24 75° NW 17:30:46 10° NNE
Cosmos 2322 Rocket 2.4 17:20:21 10° SW 17:26:02 74° NW 17:31:44 10° NE
Cosmos 2151 4.3 17:23:50 10° SE 17:26:49 19° E 17:29:50 10° NE
Cosmos 1908 3.6 17:23:09 10° NNW 17:27:03 72° W 17:30:56 10° S
Cosmos 1674 3.2 17:24:13 10° SSE 17:27:49 39° E 17:31:29 10° NNE
CZ-4 R/B 1.3 17:24:27 10° SSE 17:28:21 85° ENE 17:32:21 10° NNW
CZ-4C R/B 2.7 17:22:33 10° W 17:28:35 67° N 17:35:34 10° ENE
SJ-12 3.9 17:25:29 10° SSE 17:29:38 85° ENE 17:33:47 10° NNW
Cosmos 1378 4.0 17:27:52 10° SSW 17:31:31 51° WNW 17:35:11 10° N
Cosmos 2228 Rocket 3.2 17:27:39 10° NNW 17:32:06 85° WSW 17:36:33 10° S
Lacrosse 5 2.4 17:28:13 10° WSW 17:33:08 52° SSE 17:38:04 10° E
Meteor 2-2 Rocket 4.3 17:29:07 10° NNW 17:34:48 87° WSW 17:40:28 10° SSE
Resurs 01 Rocket 3.0 17:31:41 10° E 17:34:52 20° NE 17:38:04 10° N
SJ-6B 4.0 17:32:14 10° ESE 17:35:38 25° NE 17:39:02 10° N
COSMOS 2455 3.2 17:30:10 10° WSW 17:36:09 61° NNW 17:42:06 10° NE
USA 215 3.9 17:30:16 10° ESE 17:36:45 60° SSW 17:43:14 10° W
USA 161 3.4 17:34:50 10° N 17:36:55 22° WNW 17:38:52 10° WSW
Cosmos 1328 Rocket 3.8 17:34:12 10° NNW 17:38:40 79° W 17:43:08 10° S
Meteor 1-21 Rocket 4.4 17:33:06 10° S 17:38:51 61° E 17:44:33 10° NNE
Cosmos 1300 2.7 17:36:25 10° N 17:40:17 63° ENE 17:44:06 10° SSE
Cosmos 1151 Rocket 2.9 17:38:06 10° N 17:42:23 70° ENE 17:46:40 10° SSE
Cosmos 2279 Rocket 4.1 17:36:53 10° N 17:43:02 56° ENE 17:49:09 10° SSE
Cosmos 1242 Rocket 4.1 17:40:45 10° NNE 17:43:03 16° NE 17:44:52 12° E
MOZ.5/SAFIR/RUBIN 5/SL-8 4.4 17:39:12 10° NNE 17:43:57 61° WNW 17:48:39 10° SW
NOSS 3-2 (A) 3.7 17:39:13 10° WSW 17:45:37 86° SSE 17:52:18 12° ENE
Meteor 1-27 4.3 17:42:13 10° NNW 17:48:01 66° ENE 17:53:50 10° SSE
Lacrosse 4 Rocket 1.3 17:44:32 10° NW 17:48:39 68° NE 17:52:42 10° ESE
Cosmos 1743 Rocket 3.8 17:44:27 10° S 17:48:47 49° E 17:53:07 10° NNE
Cosmos 1076 Rocket 3.6 17:44:45 10° SSW 17:49:03 82° WNW 17:53:23 10° NNE
Blok-2BL 3.2 17:45:46 10° WNW 17:49:09 84° NNE 17:52:32 10° ESE
SL-16 R/B 3.5 17:43:37 10° NNE 17:49:34 46° NW 17:55:30 10° SW
Cosmos 1515 Rocket 3.8 17:46:06 10° NNW 17:50:37 79° WSW 17:55:04 10° S
Cosmos 2369 Rocket 2.7 17:46:04 10° NW 17:51:28 41° NNE 17:56:48 10° E
NOSS 3-2 (C) 3.7 17:45:59 10° SW 17:52:24 82° SSE 17:58:49 13° ENE
CZ-2C R/B 2.8 17:48:41 10° S 17:53:33 67° WSW 17:58:17 10° NNW
EO 1 Del DPAF 3.3 17:49:55 10° NNE 17:53:49 82° WNW 17:57:41 10° SSW
Cosmos 921 Rocket 4.4 17:50:46 10° NNW 17:54:13 21° NE 17:56:29 15° ENE
Cosmos 2242 Rocket 4.5 17:50:39 10° N 17:54:27 27° ENE 17:58:14 10° ESE
Cosmos 1125 Rocket 4.4 17:49:58 10° NW 17:55:04 53° WSW 18:00:07 10° S
Cosmos 332 Rocket 4.2 17:52:06 10° S 17:56:42 44° ESE 18:01:06 11° NE
Cosmos 2237 Rocket 3.1 17:52:27 10° SSE 17:57:10 28° ESE 18:01:01 14° NE
Cosmos 1814 Rocket 4.0 17:53:32 10° SSW 17:58:54 77° ESE 18:04:17 10° NE
SL-14 R/B 4.1 17:56:03 10° SSE 17:59:35 31° E 18:03:11 10° NNE
Cosmos 1340 Rocket 4.0 17:58:18 10° SE 18:01:17 21° E 18:02:56 16° NE
Cosmos 2056 Rocket 4.4 17:57:35 10° NNW 18:02:02 28° NNE 18:05:19 16° E
Cosmos 1484 Rocket 2.8 17:58:25 10° SSE 18:02:25 77° ENE 18:06:28 10° NNW
COSMOS 2441 4.4 17:59:36 10° SSE 18:04:29 85° WSW 18:09:21 10° NNW
COSMOS 2428 2.8 17:59:03 10° SSW 18:04:42 63° ESE 18:09:51 13° NE
SL-16 R/B 3.6 18:01:45 10° SE 18:05:21 18° E 18:06:55 16° E
Cosmos 1869 4.2 18:02:37 10° N 18:06:12 28° ENE 18:09:44 10° ESE
Cosmos 2297 4.0 18:01:36 10° NW 18:07:18 72° SW 18:12:59 10° SSE
Meteor 2-10 3.9 18:03:04 10° NNW 18:08:10 84° ENE 18:13:22 10° SSE
CENTAUR R/B 2.9 18:02:04 10° SSW 18:08:19 56° SE 18:14:05 16° ENE
ALOS 3.0 18:04:47 10° ESE 18:08:55 32° ENE 18:13:04 10° N
Thor Agena Rocket 3.8 18:04:01 10° NNE 18:09:10 49° E 18:14:13 10° S
Cosmos 2237 4.2 18:03:38 10° SSW 18:09:20 75° SE 18:14:33 13° NE
Cosmos 841 Rocket 3.6 18:04:12 10° SSW 18:09:23 60° ESE 18:14:18 11° NE
Cosmos 2180 Rocket 4.4 18:04:05 10° NNW 18:10:14 68° ENE 18:16:25 10° SSE
Spot 2 Rocket 4.0 18:08:11 10° ESE 18:12:45 36° NE 18:17:21 10° N
Cosmos 1500 Rocket 3.6 18:09:52 10° S 18:14:09 60° E 18:18:31 10° NNE
Cosmos 2058 3.5 18:11:42 10° SSE 18:15:26 35° E 18:18:53 12° NNE
Cosmos 468 Rocket 4.2 18:15:03 10° SW 18:20:13 71° NW 18:25:14 11° NNE
SPOT 3 Rocket 4.5 18:17:24 10° S 18:22:26 52° WSW 18:27:32 10° NNW
Sich 1 4.2 18:19:05 10° SE 18:22:32 23° E 18:22:59 22° ENE
GEOS 3 Rocket 3.7 18:19:44 18° ENE 18:23:39 78° NNW 18:28:53 10° WSW
Cosmos 371 Rocket 3.4 18:20:16 10° S 18:24:57 54° ESE 18:28:30 17° NE
SMAP 4.4 18:21:35 10° S 18:26:01 43° W 18:30:30 10° NNW
Cosmos 1371 Rocket 4.5 18:21:53 10° NNW 18:26:48 39° NE 18:29:56 20° E
Cosmos 2322 3.9 18:21:20 10° SW 18:27:03 72° NW 18:32:00 14° NE
Envisat 4.2 18:26:52 20° ENE 18:27:44 21° NE 18:31:31 10° N
ERS-1 Rocket 4.4 18:28:05 18° NE 18:28:31 19° NE 18:31:55 10° N
SL-16 R/B 3.1 18:23:57 10° WSW 18:29:23 44° NNW 18:34:02 14° NE
Cosmos 1633 Rocket 4.2 18:28:03 10° SE 18:31:03 23° E 18:31:03 23° E
H-2A R/B 3.6 18:31:35 28° ENE 18:31:51 28° ENE 18:35:06 10° N
Cosmos 1867 3.6 18:28:07 10° WNW 18:33:38 72° NNE 18:37:29 20° ESE
NOSS 0 Rocket 4.2 18:28:35 10° SSW 18:34:34 50° ESE 18:38:44 20° NE
Tsikada Rocket 4.4 18:28:18 10° SSW 18:34:42 67° WNW 18:41:08 10° NNE
Cosmos 1356 Rocket 4.4 18:32:52 10° SSE 18:35:32 25° ESE 18:35:32 25° ESE
FENGYUN 3A 3.8 18:31:58 10° SE 18:37:09 52° ENE 18:42:24 10° NNW
FREGAT/IRIS 2.7 18:34:10 10° SSE 18:37:11 54° ENE 18:40:13 10° N
Cosmos 1933 4.3 18:34:57 10° N 18:38:10 27° NE 18:38:10 27° NE
Aureole 2 Rocket 3.4 18:35:57 10° S 18:39:36 35° ESE 18:40:33 31° E
Cosmos 2360 Rocket 2.6 18:34:03 10° WSW 18:39:37 60° NW 18:44:08 16° NE
METEOR-M 4.0 18:34:18 10° SSE 18:39:39 80° ENE 18:45:03 10° NNW
Cosmos 1980 Rocket 3.5 18:36:14 10° WNW 18:41:11 31° NNW 18:44:49 16° NE
Cosmos 2333 4.1 18:36:07 10° SW 18:41:44 86° SE 18:45:57 19° NE
USA 116 3.3 18:40:04 13° NNE 18:42:58 76° WNW 18:46:05 10° SSW
Cosmos 1862 Rocket 4.0 18:38:53 10° N 18:43:04 39° ENE 18:45:15 23° ESE
Cosmos 972 Rocket 4.2 18:38:11 10° NNW 18:43:05 49° NE 18:46:54 18° ESE
ATLAS 5 CENTAUR R/B 2.2 18:37:47 10° WNW 18:43:16 74° NNE 18:46:56 24° E
Cosmos 1980 3.8 18:39:52 10° SSW 18:45:23 54° ESE 18:48:46 23° NE
Cosmos 1707 Rocket 3.5 18:41:43 10° NNW 18:46:06 87° WSW 18:50:26 10° S
Cosmos 1452 Rocket 4.5 18:42:01 10° NNW 18:46:41 30° NNE 18:48:02 26° ENE
Cosmos 44 Rocket 3.6 18:41:54 10° SSW 18:46:50 52° SE 18:48:59 30° ENE
COSMO-SKYMED 1 2.6 18:43:32 13° NNE 18:47:16 55° ESE 18:51:33 10° S
Helios 1A 3.5 18:46:56 32° E 18:47:56 37° ENE 18:51:50 10° N
Cosmos 1626 3.0 18:45:04 10° SSE 18:47:40 30° ESE 18:47:40 30° ESE
H-2A R/B 4.0 18:49:10 12° NNE 18:49:10 12° NNE 18:50:42 10° N
Cosmos 1174 4.3 18:45:50 10° W 18:48:57 41° NNW 18:50:16 29° NNE
Cosmos 836 Rocket 4.4 18:44:12 10° SSW 18:49:27 76° ESE 18:53:20 19° NE
SL-19 R/B 4.2 18:43:58 10° SSE 18:49:39 76° ENE 18:55:14 10° NNW
NOAA 12 4.1 18:46:20 10° SSE 18:51:36 84° WSW 18:56:57 10° NNW
Meteor 1-11 4.2 18:46:10 10° S 18:51:52 69° E 18:57:39 10° NNE
Cosmos 1697 Rocket 4.0 18:47:36 10° WNW 18:52:28 28° N 18:55:23 19° NE
Cosmos 1726 4.3 18:50:01 10° NNW 18:53:19 29° W 18:56:37 10° SSW
Cosmos 1328 3.9 18:49:26 10° SSW 18:53:23 76° WNW 18:57:23 10° NNE
Cosmos 1763 Rocket 3.7 18:48:21 10° SW 18:53:33 70° NW 18:57:36 16° NNE
CZ-2D R/B 3.9 18:55:25 36° NE 18:55:25 36° NE 18:58:35 10° N
Cosmos 1455 2.1 18:52:26 10° NNW 18:56:15 86° WSW 19:00:04 10° S
Cosmos 1607 4.2 18:50:12 10° WNW 18:56:18 56° N 18:59:25 29° ENE
Cosmos 1943 Rocket 2.4 18:55:04 10° NW 19:00:28 50° NE 19:02:33 34° E
Cosmos 304 Rocket 4.1 18:56:32 10° S 19:01:03 42° ESE 19:01:57 38° E
Cosmos 540 Rocket 3.4 18:56:43 10° SSW 19:01:52 70° ESE 19:04:51 26° NE
Cosmos 2084 Rocket 3.6 18:59:04 10° WNW 19:02:49 58° SW 19:04:32 29° SSE
Cosmos 1674 4.4 19:00:01 10° SW 19:03:33 33° WNW 19:07:06 10° N
Cosmos 2151 3.0 18:59:27 10° SSW 19:03:40 78° WNW 19:07:54 10° NNE
Cosmos 2219 Rocket 2.1 18:58:05 10° SW 19:03:44 85° SE 19:07:11 25° NE
CZ-4 R/B 4.4 19:01:23 10° SW 19:03:59 17° W 19:06:39 10° NW
Cosmos 2263 4.2 18:59:24 10° NW 19:05:02 63° NE 19:07:41 31° ESE
Cosmos 1666 Rocket 3.7 19:02:25 10° S 19:06:37 48° E 19:07:22 43° ENE
Cosmos 2333 Rocket 2.1 19:01:27 10° SSW 19:07:06 77° SE 19:10:16 27° NE
FengYun 1-2 T 4.1 19:02:17 10° SSE 19:07:50 81° ENE 19:13:22 10° NNW
Cosmos 1703 3.1 19:05:41 10° S 19:09:32 64° E 19:10:18 50° NE
SJ-6B 3.2 19:05:52 10° S 19:10:00 70° WSW 19:14:10 10° NNW
Resurs 01 Rocket 1.5 19:06:19 10° SSE 19:10:46 76° ENE 19:15:14 10° NNW
Cosmos 2322 Rocket 3.4 19:05:48 10° W 19:10:57 34° NNW 19:14:13 19° NNE
Resurs 1-3 3.5 19:09:57 20° SSE 19:12:58 69° ENE 19:17:23 10° NNW
USA 238 DEB 3.8 19:06:36 10° W 19:13:38 68° N 19:16:56 34° ENE
USA 238 3.8 19:06:42 10° W 19:13:44 68° N 19:17:02 34° ENE
ATLAS 3B R/B 2.8 19:08:27 10° WNW 19:15:42 68° N 19:18:46 35° E
Lacrosse 5 2.1 19:10:49 10° W 19:15:49 62° S 19:17:31 39° ESE
SKYMED 3 4.5 19:13:55 16° NNE 19:17:24 88° WNW 19:21:46 10° SSW
CZ-4C R/B 2.6 19:11:19 10° WNW 19:17:43 77° NNE 19:21:00 35° E
Cosmos 1242 Rocket 2.3 19:15:05 10° NNW 19:18:37 86° WSW 19:19:07 63° S
SAR-Lupe-4 3.4 19:20:30 79° NE 19:20:30 79° NE 19:24:02 10° NNW
SAR-Lupe-1 4.3 19:21:50 57° N 19:21:50 57° N 19:24:52 10° NNW
COSMOS 2455 3.5 19:17:15 10° WNW 19:23:02 44° N 19:25:15 32° NE
Lacrosse 4 Rocket 3.2 19:23:32 10° WNW 19:27:08 30° WSW 19:30:42 10° S
Spot 1 4.0 19:26:45 34° SSE 19:28:42 81° ENE 19:33:03 10° NNW
HJ-1C 3.8 19:29:46 39° SSW 19:30:50 64° WSW 19:34:17 10° NNW
Cosmos 1656 Rocket 4.0 19:25:33 10° NW 19:31:04 46° NE 19:31:50 44° ENE
Cosmos 2242 Rocket 4.0 19:28:40 10° NNW 19:33:03 62° W 19:37:26 10° S
Cosmos 921 Rocket 2.9 19:28:52 10° NNW 19:33:19 71° ENE 19:33:19 71° ENE
Cosmos 783 Rocket 4.4 19:29:04 10° SSW 19:34:25 89° ESE 19:36:39 37° NNE
SKYMED 2 3.9 19:32:10 17° N 19:35:27 66° WNW 19:39:46 10° SSW
SL-14 R/B 4.5 19:31:53 10° SW 19:35:42 43° WNW 19:39:00 13° N
Cosmos 2369 Rocket 2.2 19:30:18 10° NW 19:36:01 81° SW 19:38:50 31° SSE
NOSS 3-2 (A) 3.8 19:30:18 10° W 19:36:57 68° N 19:39:41 40° ENE
Cosmos 1340 Rocket 3.1 19:33:31 10° SSW 19:37:26 64° WNW 19:38:37 41° N
Meteor 1-28 Rocket 3.4 19:39:40 66° NW 19:39:55 69° WNW 19:43:37 10° SSW
Cosmos 2237 Rocket 2.1 19:35:03 10° SW 19:40:43 86° NW 19:42:52 40° NE
Cosmos 44 3.2 19:36:57 10° SW 19:42:03 73° SE 19:42:22 70° ESE
DMSP B5D1-3 4.5 19:37:27 12° NNE 19:42:09 82° WNW 19:47:16 10° SSW
Cosmos 1869 4.2 19:38:48 10° NNW 19:42:44 50° W 19:46:40 10° S
NOSS 3-2 (C) 3.8 19:37:05 10° W 19:43:43 69° N 19:46:15 42° ENE
Cosmos 2056 Rocket 3.3 19:39:45 10° NNW 19:44:56 80° NE 19:45:42 64° SE
Cosmos 1805 Rocket 3.8 19:40:34 10° SSW 19:45:01 68° WNW 19:47:37 24° N
S3M 4.0 19:39:42 10° N 19:46:05 64° ENE 19:47:55 45° SE
ALOS 2.8 19:41:34 10° S 19:46:11 60° WSW 19:50:51 10° NNW
Cosmos 839 Rocket 4.0 19:39:54 10° WNW 19:46:51 78° NNE 19:48:27 53° ESE
DNEPR-1 R/B 3.9 19:41:48 10° SW 19:47:52 84° SE 19:48:36 67° ENE
SL-16 R/B 2.1 19:42:54 10° SSW 19:48:30 64° ESE 19:48:50 62° ESE
Cosmos 2084 3.8 19:44:48 10° WSW 19:47:42 49° SW 19:47:42 49° SW
Meteor 1-26 Rocket 4.1 19:43:20 10° NNW 19:49:09 75° ENE 19:50:32 52° SE
COSMOS 2428 3.5 19:43:42 10° WSW 19:49:14 48° NW 19:51:54 28° NNE
Cosmos 1624 Rocket 3.9 19:44:20 10° NNW 19:49:44 88° ENE 19:50:48 59° SE
Spot 2 Rocket 4.0 19:46:35 10° S 19:51:34 59° WSW 19:56:36 10° NNW
Cosmos 2058 4.2 19:48:30 10° SW 19:52:22 40° WNW 19:55:10 17° N
Cosmos 972 4.3 19:53:09 10° NNW 19:58:06 83° ENE 19:58:06 83° ENE
Nadezhda 4 Rocket 4.0 19:52:33 10° SSW 19:58:53 82° WNW 20:05:18 10° NNE
CENTAUR R/B 2.8 19:52:12 10° WSW 19:58:55 79° NNW 20:01:17 47° ENE
Sich 1 3.2 19:55:24 10° SSW 19:59:51 71° WNW 20:00:04 69° NW
GEOS 3 Rocket 4.0 20:00:50 49° NNE 20:01:30 52° N 20:06:33 10° W
Cosmos 371 Rocket 4.4 20:01:01 10° WSW 20:05:35 41° NW 20:07:12 31° N
H-2A R/B 3.9 20:06:48 41° WNW 20:06:48 41° WNW 20:09:42 10° NNW
Envisat 3.3 20:07:04 56° N 20:07:04 56° N 20:11:11 10° NNW
USA 229 DEB 4.5 20:00:09 10° SSW 20:04:43 34° SSE 20:04:43 34° SSE
ERS-1 Rocket 3.8 20:08:04 40° N 20:08:04 40° N 20:11:25 10° NNW
USA 229 4.5 20:00:16 10° SSW 20:04:46 34° SSE 20:04:46 34° SSE
Cosmos 1538 Rocket 3.9 20:02:44 10° SSW 20:07:49 80° S 20:07:49 80° S
Meteor 2-10 Rocket 3.5 20:03:13 10° NNW 20:07:44 71° N 20:07:44 71° N
Cosmos 1633 Rocket 3.6 20:04:37 10° SSW 20:08:14 54° SW 20:08:14 54° SW
Cosmos 1371 Rocket 4.3 20:04:07 10° NW 20:09:17 64° WSW 20:10:20 51° SSW
Cosmos 1553 Rocket 3.8 20:08:29 10° NNW 20:14:41 89° E 20:16:10 55° SSE
SL-16 R/B 3.6 20:09:56 10° WNW 20:14:50 28° N 20:15:54 27° NNE
Aureole 2 Rocket 3.9 20:11:06 10° SW 20:14:27 45° WNW 20:14:27 45° WNW
Cosmos 1867 4.3 20:11:53 10° WNW 20:17:09 48° SW 20:18:11 43° SSW
Cosmos 1092 Rocket 4.1 20:14:05 10° SSW 20:20:27 79° WNW 20:26:51 10° NNE
NOSS 0 Rocket 4.3 20:14:51 10° WSW 20:21:02 62° NW 20:22:46 45° NNE
COSMO-SKYMED 1 4.3 20:20:44 18° N 20:23:18 31° WNW 20:27:08 10° WSW
Helios 1A 4.1 20:23:34 43° W 20:23:34 43° W 20:27:34 10° NNW
Cosmos 1626 4.2 20:20:22 10° SW 20:22:25 26° WSW 20:22:25 26° WSW
Cosmos 2360 Rocket 3.5 20:19:42 10° WNW 20:24:40 31° NNW 20:25:55 28° N
Cosmos 1980 Rocket 3.5 20:21:53 10° NW 20:26:35 29° N 20:26:35 29° N
H-2A R/B 4.0 20:29:48 18° N 20:29:48 18° N 20:31:25 10° N
ATLAS 5 CENTAUR R/B 2.6 20:22:30 10° WNW 20:28:03 58° SW 20:28:31 56° SSW
Cosmos 44 Rocket 3.8 20:23:21 10° WSW 20:27:43 58° WNW 20:27:43 58° WNW
Cosmos 1452 Rocket 4.0 20:24:14 10° NNW 20:28:23 55° NNW 20:28:23 55° NNW
Cosmos 1980 4.3 20:24:02 10° WSW 20:29:36 53° NW 20:30:38 47° N
Terra 4.3 20:33:13 13° N 20:33:13 13° N 20:33:47 10° N
Aureole 1 Rocket 4.1 20:25:40 10° SSW 20:32:00 85° ESE 20:33:43 57° NE
Cosmos 1697 Rocket 3.9 20:32:51 10° NW 20:37:07 32° N 20:37:07 32° N
Cosmos 1607 4.0 20:37:54 10° WNW 20:43:32 70° NNW 20:43:32 70° NNW
Cosmos 1943 Rocket 2.6 20:38:58 10° NW 20:44:06 57° WSW 20:44:06 57° WSW
Resurs 01 Rocket 3.9 20:44:15 10° SW 20:47:46 22° W 20:51:16 10° NW
Cosmos 2219 Rocket 3.2 20:43:01 10° W 20:48:17 39° NNW 20:48:55 38° NNW
Cosmos 2333 Rocket 3.1 20:46:27 10° WSW 20:51:50 42° NNW 20:52:17 42° NNW
Cosmos 2322 Rocket 3.7 20:51:41 10° NW 20:56:02 27° N 20:56:02 27° N
Lacrosse 5 3.4 20:53:39 10° W 20:56:44 31° WSW 20:56:44 31° WSW
USA 238 DEB 3.8 20:57:59 10° WNW 21:04:23 75° WNW 21:04:23 75° WNW
USA 238 3.8 20:58:04 10° WNW 21:04:29 75° WNW 21:04:29 75° WNW
CZ-4C R/B 3.0 20:59:50 10° WNW 21:06:13 59° SW 21:06:13 59° SW
ATLAS 3B R/B 2.8 20:59:36 10° WNW 21:06:01 70° W 21:06:01 70° W
COSMOS 2455 3.7 21:03:59 10° NW 21:08:24 44° NNW 21:08:24 44° NNW
Cosmos 2369 Rocket 4.1 21:14:58 10° NW 21:19:20 23° WSW 21:20:40 21° SW
Cosmos 2237 Rocket 3.5 21:20:14 10° W 21:24:43 35° NW 21:24:43 35° NW
NOSS 3-2 (A) 4.1 21:21:29 10° WNW 21:27:05 62° NW 21:27:05 62° NW
SL-16 R/B 3.7 21:27:26 10° WSW 21:30:46 32° W 21:30:46 32° W
COSMOS 2428 4.4 21:29:49 10° WNW 21:33:55 28° NNW 21:33:55 28° NNW
NOSS 3-2 (C) 4.2 21:28:20 10° WNW 21:33:42 58° NW 21:33:42 58° NW
CENTAUR R/B 3.4 21:43:14 10° WNW 21:48:28 52° NW 21:48:28 52° NW
SL-16 R/B 4.2 21:55:20 10° NW 21:57:46 22° NNW 21:57:46 22° NNW
Cosmos 2360 Rocket 4.4 22:05:22 10° NW 22:07:42 21° NNW 22:07:42 21° NNW
Cosmos 1980 Rocket 4.4 22:06:29 10° NW 22:08:21 21° NNW 22:08:21 21° NNW
